Location: Palojoki
(61.0500°N, 23.0833°E)
Time: 19:31:56
(UTC+00:00)

Daily predictions for brighter satellites

Satellite Brightness Start Highest point End
(mag) Time Altitude Azimuth Time Altitude Azimuth Time Altitude Azimuth
Meteor 2-15 4.5 14:16:33 10° S 14:22:39 85° ESE 14:28:46 10° NNE
Meteor 2-15 Rocket 4.5 14:17:15 10° S 14:23:20 74° E 14:29:26 10° NNE
NOSS 3-3 (A) 4.3 14:17:11 10° W 14:23:38 78° NNW 14:31:07 10° ENE
Cosmos 1125 Rocket 3.7 14:18:38 10° NNW 14:23:42 48° NE 14:28:45 10° ESE
NOSS 3-3 (C) 4.3 14:17:18 10° W 14:23:44 78° NNW 14:31:13 10° ENE
Cosmos 2360 Rocket 2.9 14:19:30 10° S 14:24:41 39° ESE 14:29:53 10° NE
CZ-4B R/B 3.1 14:21:42 10° SSE 14:25:52 87° WSW 14:30:17 10° NNW
Cosmos-2242 3.3 14:22:34 10° S 14:26:48 50° E 14:31:05 10° NNE
Cosmos 44 3.5 14:25:31 10° WNW 14:30:32 63° NNE 14:35:48 10° E
Cosmos 1633 2.5 14:27:24 10° NNW 14:31:00 84° ENE 14:34:34 10° SSE
Cosmos 921 Rocket 3.6 14:27:29 10° S 14:31:44 42° ESE 14:36:02 10° NE
CZ-4 R/B 3.1 14:29:52 10° ENE 14:31:55 14° NE 14:34:00 10° NNE
Cosmos 2219 Rocket 3.5 14:29:49 10° SSE 14:34:09 23° ESE 14:38:27 10° NE
Cosmos 1500 Rocket 4.0 14:30:59 10° N 14:35:07 40° ENE 14:39:17 10° SE
ALOS 3.8 14:31:13 10° SSW 14:35:39 41° W 14:40:06 10° NNW
Cosmos 192 4.4 14:31:08 10° SSW 14:36:07 85° ESE 14:41:07 10° NE
Cosmos 1980 Rocket 2.6 14:31:27 10° WSW 14:36:59 59° NW 14:42:34 10° NE
SL-16 R/B 2.3 14:32:35 10° SSW 14:38:15 76° SE 14:43:57 10° NE
CZ-4B R/B 3.3 14:33:26 10° SE 14:38:36 52° ENE 14:43:44 10° NNW
Meteor 2-10 Rocket 3.9 14:34:15 10° SSW 14:39:14 64° WNW 14:44:23 10° NNE
Cosmos 2151 4.0 14:36:22 10° NNW 14:40:28 50° W 14:44:34 10° S
Okean 3 Rocket 3.9 14:37:11 10° NNW 14:41:39 76° W 14:46:08 10° S
Cosmos 2221 3.7 14:38:43 10° SE 14:42:10 23° E 14:45:37 10° NNE
Cosmos 2237 Rocket 4.0 14:41:08 10° ESE 14:42:42 11° E 14:44:17 10° ENE
USA 267 3.8 14:36:18 10° ESE 14:42:45 60° SSW 14:49:13 10° W
NOAA 12 4.3 14:38:13 10° SE 14:43:22 51° ENE 14:48:31 10° NNW
Cosmos 468 Rocket 4.4 14:38:43 10° S 14:43:34 45° ESE 14:48:27 10° NE
Cosmos 1939 Rocket 4.0 14:43:13 10° ESE 14:46:15 22° NE 14:49:19 10° N
Cosmos 2369 Rocket 2.9 14:41:51 10° NW 14:47:09 36° NNE 14:52:24 10° E
GENESIS II 4.5 14:45:32 10° WNW 14:49:33 76° SSW 14:53:30 10° SE
Cosmos 2322 4.5 14:44:35 10° S 14:49:38 34° ESE 14:54:43 10° NE
Cosmos 1869 4.1 14:48:27 10° SSE 14:52:09 34° E 14:55:54 10° NNE
Cosmos 1766 Rocket 4.1 14:47:51 10° NNW 14:52:18 67° W 14:56:41 10° S
Cosmos 540 Rocket 4.3 14:48:06 10° SSE 14:52:32 31° ESE 14:57:00 10° NE
Cosmos 2369 4.5 14:47:16 10° WSW 14:52:42 44° NNW 14:58:09 10° NE
Meteor 2-3 Rocket 4.3 14:48:23 10° NNW 14:54:10 65° W 14:59:54 10° S
SJ 16-02 4.3 14:52:19 10° NW 14:55:41 21° W 14:59:02 10° SSW
YAOGAN 1 3.9 14:52:42 10° E 14:55:46 19° NE 14:58:51 10° N
Cosmos 1812 Rocket 4.0 14:51:53 10° SSW 14:56:11 62° WNW 15:00:31 10° N
GEOS 3 Rocket 3.8 14:51:11 10° ENE 14:56:34 78° NNW 15:01:57 10° WSW
Cosmos 1743 Rocket 3.6 14:52:41 10° N 14:57:09 58° ENE 15:01:35 10° SSE
Cosmos 841 Rocket 4.2 14:55:51 10° S 15:00:31 34° ESE 15:05:01 11° NE
Okean-O 3.7 14:57:01 10° ESE 15:00:32 23° NE 15:04:02 10° N
AQUARIUS 4.3 14:56:17 10° SE 15:00:41 55° ENE 15:05:06 10° NNW
CORIOLIS 4.2 14:56:10 10° SE 15:01:30 61° ENE 15:06:53 10° NNW
Envisat 3.0 14:58:29 10° SSE 15:03:35 88° ENE 15:08:43 10° NNW
Cosmos 1408 Rocket 3.7 14:59:20 10° NNW 15:03:47 83° WSW 15:08:11 10° S
Cosmos 2237 4.3 14:58:43 10° SSW 15:04:22 67° SE 15:09:50 11° NE
Cosmos 2315 Rocket 4.0 14:58:58 10° S 15:05:12 79° E 15:11:33 10° NNE
SL-16 R/B 3.5 14:59:20 10° NNE 15:05:17 46° NW 15:11:12 10° WSW
SeaSat 1 3.8 15:03:57 12° NE 15:07:32 25° N 15:11:29 10° NW
Cosmos 2154 Rocket 4.0 15:02:18 10° NNW 15:08:36 64° ENE 15:14:53 10° SSE
Sich 1 3.6 15:04:57 10° N 15:09:07 37° ENE 15:13:14 10° SE
H-2A R/B 3.1 15:05:33 10° E 15:09:43 25° NE 15:13:49 10° N
H-2A R/B 2.6 15:05:39 10° SSE 15:09:58 84° WSW 15:14:09 10° NNW
Cosmos 2297 3.8 15:05:20 10° NW 15:10:57 58° NE 15:16:34 10° ESE
H-2A R/B 3.3 15:09:06 10° S 15:12:54 63° WSW 15:16:48 10° NNW
Okean O Rocket 1.5 15:09:08 10° SSE 15:13:28 69° ENE 15:17:52 10° NNW
Cosmos 405 Rocket 2.6 15:11:41 10° NNW 15:15:32 76° ENE 15:19:27 10° SSE
Cosmos 2341 Rocket 4.2 15:09:40 10° N 15:15:43 47° ENE 15:21:47 10° SE
Cosmos 1805 Rocket 3.7 15:13:02 10° N 15:17:26 51° ENE 15:21:48 10° SE
Cosmos 1842 Rocket 3.9 15:13:25 10° SSE 15:17:33 44° E 15:21:41 10° NNE
Aureole 2 Rocket 4.4 15:16:19 10° NW 15:18:38 26° WSW 15:21:00 10° S
Cosmos 1943 Rocket 2.4 15:15:10 10° NW 15:20:33 49° NNE 15:25:57 10° ESE
Cosmos 1666 Rocket 4.1 15:19:18 10° N 15:23:21 35° ENE 15:27:24 10° SE
USA 281 3.2 15:18:10 10° SE 15:24:40 67° NE 15:31:12 10° NW
Cosmos 2322 Rocket 2.3 15:21:07 10° SW 15:26:50 76° NW 15:31:56 13° NE
YAOGAN 6 2.9 15:25:46 10° S 15:29:24 69° WSW 15:33:03 10° NNW
Cosmos 1570 Rocket 4.3 15:24:26 10° S 15:29:29 47° ESE 15:33:39 15° NE
Cosmos 44 Rocket 3.7 15:25:24 10° WNW 15:30:22 55° N 15:33:56 19° ENE
Cosmos 2285 Rocket 4.1 15:24:43 10° NW 15:31:07 59° NE 15:37:26 10° SE
SMAP 3.1 15:26:38 10° SSE 15:31:18 85° WSW 15:36:01 10° NNW
Helios 1A Rocket 3.5 15:30:40 10° ESE 15:34:17 33° ENE 15:37:55 10° N
Cosmos 2327 Rocket 4.4 15:30:16 10° NNW 15:36:25 88° ENE 15:42:37 10° SSE
Cosmos 2074 Rocket 4.3 15:30:47 10° NNW 15:36:59 71° W 15:43:12 10° S
CZ-4C R/B 3.1 15:33:48 12° NNE 15:37:06 61° ESE 15:40:42 10° S
ARGOS 4.0 15:34:14 13° ESE 15:38:12 30° NE 15:42:50 10° N
Meteor 1-20 Rocket 4.4 15:34:08 10° NNW 15:39:50 51° ENE 15:45:33 10° SE
Feng Yun 1-1 Rocket 4.2 15:34:57 10° SE 15:40:42 70° ENE 15:46:18 10° NNW
Cosmos 2333 Rocket 2.4 15:36:34 10° SSW 15:42:06 55° ESE 15:46:09 18° NE
SL-08 R/B 4.1 15:37:19 10° NNE 15:42:10 54° WNW 15:46:57 10° SW
ADEOS Rocket 3.5 15:34:49 10° NNE 15:42:17 79° ESE 15:50:06 10° SSW
Meteor 1-27 4.3 15:37:32 10° SSW 15:43:11 87° WNW 15:48:58 10° NNE
CZ-2C R/B 3.3 15:39:06 10° SE 15:43:49 42° ENE 15:48:23 10° N
SL-8 Rocket 4.1 15:37:56 10° N 15:44:01 54° ENE 15:50:08 10° SE
H-2A R/B 2.1 15:40:57 13° NNE 15:44:37 54° ESE 15:48:43 10° S
Cosmos 1607 4.2 15:38:25 10° SW 15:44:41 60° SE 15:49:06 21° ENE
Cosmos 1697 Rocket 3.8 15:41:21 10° WNW 15:46:27 33° NNW 15:50:09 17° NE
COSMOS 2428 3.0 15:41:52 10° SSW 15:47:24 50° ESE 15:51:10 20° NE
Cosmos 2084 Rocket 3.7 15:43:49 10° SW 15:47:51 51° SE 15:49:54 27° E
Landsat 5 3.5 15:43:46 10° NNE 15:48:03 72° ESE 15:52:28 10° S
Ariane Rocket 4.2 15:47:27 21° NE 15:48:06 21° NE 15:51:50 10° N
Cosmos 1606 3.7 15:44:51 10° SE 15:48:01 26° E 15:48:01 26° E
Cosmos 2278 Rocket 3.3 15:43:44 10° NW 15:49:10 48° WSW 15:54:37 10° S
Cosmos 405 2.9 15:45:42 10° S 15:49:10 66° ESE 15:51:31 19° NNE
Cosmos 1763 Rocket 3.5 15:45:12 10° SW 15:50:18 83° NW 15:54:29 15° NNE
Cosmos 1862 3.8 15:47:20 10° NNW 15:51:22 62° W 15:55:21 10° S
Cosmos 1633 Rocket 3.2 15:50:54 10° N 15:55:14 50° ENE 15:59:30 10° SE
Meteor 1-25 Rocket 4.2 15:50:32 10° NNW 15:56:04 59° ENE 16:01:37 10° SE
Resurs 01 Rocket 3.8 16:00:03 11° NNE 16:00:03 11° NNE 16:00:28 10° NNE
Meteor 2-12 Rocket 4.4 15:55:57 10° NNW 16:02:10 85° ENE 16:08:20 10° SSE
Cosmos 1125 Rocket 4.4 16:00:52 10° NW 16:05:55 52° WSW 16:10:57 10° S
CZ-4 R/B 1.4 16:02:19 10° SE 16:06:09 51° ENE 16:10:05 10° N
Cosmos 2360 Rocket 2.4 16:02:50 10° SW 16:08:28 70° NW 16:12:25 20° NE
Cosmos 921 Rocket 4.0 16:05:42 10° SW 16:10:04 46° NW 16:13:38 15° NNE
Cosmos 1602 4.1 16:06:46 10° N 16:10:33 41° ENE 16:10:49 40° ENE
Cosmos 44 3.7 16:06:51 10° WNW 16:11:59 68° SW 16:16:56 12° SE
Cosmos 2208 Rocket 4.0 16:07:29 10° SSW 16:12:46 72° ESE 16:16:12 23° NE
CZ-2D R/B 3.1 16:10:41 10° SSE 16:14:30 74° ENE 16:18:21 10° NNW
IRS-1C Rocket 4.0 16:09:16 10° SSE 16:14:34 89° ENE 16:19:54 10° NNW
Cosmos 1356 3.5 16:11:10 10° NNW 16:14:37 76° WSW 16:18:02 10° S
NOSS 3-3 (A) 4.3 16:08:17 10° WNW 16:15:05 79° NNE 16:19:47 26° E
CSL-04 DEB 4.3 16:12:41 23° NNE 16:15:06 71° ESE 16:19:12 10° SSW
NOSS 3-3 (C) 4.3 16:08:24 10° WNW 16:15:11 79° NNE 16:19:51 26° E
ERS-2 2.6 16:16:17 40° ESE 16:16:17 40° ESE 16:19:24 10° S
CSL-04 Debris 4.3 16:10:57 10° SE 16:16:17 54° ENE 16:21:38 10° NNW
Cosmos 2219 Rocket 2.1 16:11:42 10° SSW 16:17:21 77° SE 16:20:39 26° NE
CZ-4B R/B 4.4 16:14:16 10° S 16:19:21 43° W 16:24:24 10° NNW
Cosmos 2221 2.8 16:15:03 10° SSW 16:19:23 69° WNW 16:23:43 10° NNE
Cosmos 1939 Rocket 2.9 16:16:56 10° SSE 16:20:49 77° WSW 16:24:46 10° NNW
SJ-11-01 4.4 16:18:51 22° SE 16:21:43 52° ENE 16:26:21 10° NNW
Cosmos 1980 Rocket 3.3 16:16:58 10° WNW 16:22:01 33° NNW 16:24:50 21° NNE
SL-16 R/B 3.0 16:17:21 10° WSW 16:22:47 45° NNW 16:26:18 21° NNE
Cosmos 371 Rocket 4.2 16:19:17 10° NNW 16:23:38 30° NNE 16:23:59 30° NE
Cosmos 2237 Rocket 2.5 16:20:06 10° S 16:25:22 43° ESE 16:26:46 36° E
CZ-4B R/B 2.6 16:26:55 27° S 16:26:55 27° S 16:28:33 10° S
USA 267 4.4 16:20:35 10° SE 16:26:36 38° SSW 16:32:38 10° W
Cosmos 2218 Rocket 3.8 16:21:33 10° NNW 16:27:46 78° ENE 16:33:55 10° SSE
Cosmos 1470 Rocket 3.5 16:25:15 10° N 16:29:36 60° ENE 16:31:14 35° SE
YAOGAN 1 2.4 16:26:57 10° SSE 16:31:16 73° ENE 16:35:37 10° NNW
Cosmos 1656 Rocket 3.8 16:26:06 10° NW 16:31:43 55° NE 16:33:31 39° E
USA 81 3.9 16:26:23 10° N 16:31:43 81° E 16:37:02 10° SSE
Cosmos 2369 Rocket 2.1 16:26:16 10° NW 16:32:02 73° NE 16:34:49 31° ESE
DNEPR-1 R/B 4.4 16:26:00 10° WSW 16:32:49 83° NNW 16:35:18 36° ENE
Cosmos 2322 3.8 16:27:46 10° SW 16:33:27 78° NW 16:36:40 27° NE
COSMO-SKYMED 1 2.8 16:33:46 48° ESE 16:33:46 48° ESE 16:37:45 10° S
Cosmos 540 Rocket 3.6 16:28:41 10° SW 16:33:49 73° NW 16:36:51 25° NNE
GEOS 3 Rocket 4.0 16:32:17 35° ENE 16:34:24 59° N 16:39:43 10° W
Meteor 1-11 Rocket 4.3 16:30:04 10° N 16:35:15 36° NE 16:35:21 36° ENE
Okean-O 2.5 16:32:06 10° SSE 16:36:33 90° SE 16:41:02 10° NNW
Cosmos 2366 rocket 3.9 16:34:03 10° NNW 16:40:21 87° E 16:46:33 10° SSE
CSL-04 Rocket 3.5 16:37:06 16° SE 16:41:23 69° ENE 16:46:41 10° NNW
Cosmos 841 Rocket 3.7 16:36:56 10° SW 16:42:09 68° NW 16:45:06 26° NNE
Cosmos 1980 3.8 16:37:40 10° SSW 16:43:12 55° ESE 16:44:33 44° ENE
SeaSat 1 3.4 16:43:44 31° NNE 16:44:07 32° NNE 16:48:28 10° NW
Sich 1 4.2 16:42:41 10° NNW 16:46:55 44° W 16:51:06 10° SSW
H-2A R/B 1.9 16:43:15 10° SSE 16:48:35 79° ENE 16:53:46 10° NNW
Meteor 1-14 Rocket 4.2 16:42:49 10° NNW 16:48:44 77° ENE 16:54:42 10° SSE
Okean O Rocket 3.9 16:46:38 10° SSW 16:50:15 25° W 16:53:56 10° NW
Nadezhda 1 Rocket 4.3 16:45:27 10° SSW 16:51:48 69° WNW 16:58:14 10° NNE
Cosmos 2297 4.5 16:49:41 10° NW 16:55:10 51° WSW 17:00:39 10° SSE
SL-08 RB Rocket 4.1 16:58:16 47° NNE 16:58:16 47° NNE 17:01:58 10° NNW
Cosmos 1933 Rocket 3.5 16:55:54 10° NNW 17:00:11 74° NE 17:00:11 74° NE
Cosmos 1943 Rocket 2.5 16:59:04 10° NW 17:04:33 63° WSW 17:07:55 24° SSE
Cosmos 1814 Rocket 4.4 16:59:48 10° SW 17:05:05 62° NW 17:07:28 32° NNE
SL-24 DEB 4.1 17:01:33 10° N 17:06:22 79° E 17:11:09 10° S
Cosmos 2239 Rocket 4.4 17:02:53 10° NNW 17:09:00 64° ENE 17:10:12 53° ESE
Helios 1A Rocket 3.7 17:05:26 10° S 17:09:21 49° WSW 17:13:18 10° NNW
USA 281 4.1 17:03:10 10° S 17:09:29 48° WSW 17:15:50 10° NW
Meteor 1-26 Rocket 4.3 17:04:40 10° S 17:10:35 60° E 17:11:01 58° E
Cosmos 2322 Rocket 3.3 17:06:25 10° W 17:11:41 37° NNW 17:13:44 28° NNE
Cosmos 44 Rocket 3.2 17:07:13 10° WNW 17:12:20 84° NNE 17:12:39 78° E
SL-16 R/B 3.5 17:07:16 10° S 17:09:54 25° SSE 17:09:54 25° SSE
Cosmos 2263 4.1 17:11:53 10° NW 17:17:35 87° SW 17:18:36 62° SSE
ARGOS 3.1 17:15:45 37° SSE 17:18:02 86° WSW 17:23:30 10° NNW
H-2A R/B 3.6 17:18:03 18° N 17:20:28 32° NW 17:24:10 10° WSW
SKYMED 2 3.9 17:22:23 62° SW 17:22:23 62° SW 17:26:05 10° SSW
NOSS 0 Rocket 3.8 17:17:00 10° SW 17:23:17 88° SE 17:24:40 57° NE
Cosmos 1606 3.6 17:19:48 10° SSW 17:23:04 47° WSW 17:23:04 47° WSW
CZ-2C R/B 3.8 17:18:49 10° S 17:23:44 49° W 17:28:29 10° NNW
MetOp-A 4.4 17:25:47 56° NNE 17:25:47 56° NNE 17:30:15 10° NNW
Cosmos 836 Rocket 4.4 17:19:41 10° SSW 17:25:00 85° ESE 17:25:00 85° ESE
Ariane Rocket 3.5 17:27:39 47° N 17:27:39 47° N 17:31:23 10° NNW
Cosmos 2333 Rocket 2.7 17:20:54 10° WSW 17:26:30 55° NW 17:28:10 41° NNE
Cosmos 2084 Rocket 4.0 17:23:03 10° W 17:26:26 55° W 17:26:26 55° W
MOS 1 4.3 17:31:22 63° NNE 17:31:22 63° NNE 17:36:25 10° NNW
COSMOS 2428 3.1 17:26:01 10° WSW 17:31:42 59° NW 17:33:11 45° NNE
Cosmos 1697 Rocket 3.7 17:26:46 10° NW 17:31:53 33° NNE 17:31:53 33° NNE
Cosmos 1607 4.1 17:25:34 10° WSW 17:32:00 73° NNW 17:33:13 58° NE
USA 215 3.6 17:32:16 47° SSE 17:32:20 47° SSE 17:38:36 10° SW
EO 1 Delta rocket 4.1 17:32:13 38° N 17:34:10 77° WNW 17:39:55 10° SSW
Resurs 01 Rocket 4.0 17:37:37 14° N 17:37:37 14° N 17:38:20 10° N
Cosmos 724 4.2 17:28:44 10° WSW 17:34:45 87° NNW 17:35:18 75° NE
CZ-4 R/B 3.3 17:37:57 10° SSW 17:41:26 29° W 17:44:59 10° NNW
Cosmos 2181 Rocket 4.2 17:35:29 10° SSW 17:41:55 73° WNW 17:48:19 10° NNE
Cosmos 1934 Rocket 3.9 17:35:33 10° NNW 17:41:41 72° NE 17:41:41 72° NE
Cosmos 1821 Rocket 4.0 17:36:56 10° NNW 17:43:07 79° W 17:45:18 43° S
Meteor 1-5 Rocket 4.4 17:41:19 10° NNW 17:47:20 75° WSW 17:48:27 58° SSW
ERS-2 4.4 17:50:53 24° WSW 17:50:53 24° WSW 17:52:43 10° WSW
Cosmos 2056 Rocket 4.2 17:45:15 10° NNW 17:48:56 45° NNW 17:48:56 45° NNW
Cosmos 2360 Rocket 3.3 17:48:12 10° W 17:53:20 35° NNW 17:54:11 33° N
Cosmos 2219 Rocket 3.0 17:56:21 10° WSW 18:01:46 44° NNW 18:02:22 42° NNW
Cosmos 1980 Rocket 3.5 18:02:24 10° NW 18:06:35 31° N 18:06:35 31° N
SL-16 R/B 3.5 18:03:09 10° WNW 18:08:09 31° N 18:08:09 31° N
Cosmos 2237 Rocket 2.6 18:03:42 10° SW 18:08:38 60° W 18:08:38 60° W
COSMO-SKYMED 1 4.4 18:10:59 29° W 18:10:59 29° W 18:13:39 10° SW
GEOS 3 Rocket 4.3 18:13:24 54° NW 18:13:24 54° NW 18:17:37 10° WNW
Cosmos 1656 Rocket 4.3 18:09:53 10° NW 18:14:55 53° W 18:14:55 53° W
Cosmos 2369 Rocket 3.3 18:10:35 10° NW 18:15:48 38° WSW 18:16:39 36° SW
Meteor 1-11 Rocket 4.4 18:13:30 10° NNW 18:17:52 52° NW 18:17:52 52° NW
SeaSat 1 4.0 18:23:31 31° NNW 18:23:31 31° NNW 18:26:07 10° NW
H-2A R/B 3.9 18:24:04 10° SSW 18:28:33 27° W 18:32:58 10° NNW
Cosmos 1943 Rocket 4.5 18:43:45 10° WNW 18:47:21 18° W 18:49:30 15° SW
SL-16 R/B 4.4 18:50:43 10° SW 18:51:51 16° SW 18:51:51 16° SW
Cosmos 2322 Rocket 3.9 18:52:07 10° NW 18:55:32 27° NNW 18:55:32 27° NNW
Cosmos 2333 Rocket 4.0 19:06:45 10° WNW 19:10:09 27° NW 19:10:09 27° NW
Cosmos 2360 Rocket 4.4 19:33:47 10° NW 19:35:56 20° NW 19:35:56 20° NW
Cosmos 2219 Rocket 4.5 19:42:01 10° WNW 19:44:05 20° NW 19:44:05 20° NW
